Wind_Speed
10 11 11 11 10 10 10 11 10 10 11 11 10 10 10 10 10 10 10 10 9 10 10 9 9 10 10 11 11 11 11 11 11 11 12 12 12 13 13 12 13 13 13 14
10 11 11 10 10 10 11 11 11 11 11 11 11 10 11 11 11 11 11 10 10 10 11 11 11 11 11 12 12 12 12 11 12 12 12 13 14 14 14 13 13 14 15 15
10 10 10 10 10 10 11 11 11 10 11 11 11 10 10 11 12 12 12 11 11 11 12 12 12 12 12 12 13 13 13 13 13 13 13 14 14 15 15 15 15 15 16 16
10 10 10 10 10 10 10 11 11 11 11 11 12 12 11 12 12 12 12 12 12 13 13 13 13 13 13 13 13 14 14 14 15 15 15 15 15 16 16 16 16 16 16 16
11 11 10 10 10 10 10 10 11 11 12 12 13 13 11 12 12 12 12 13 13 13 14 13 13 13 13 13 14 15 15 16 16 16 16 16 17 17 17 17 17 17 16 17
11 11 11 11 11 11 11 11 11 12 13 13 13 13 11 11 12 12 13 13 13 14 14 14 15 15 15 15 16 16 17 17 17 17 17 17 17 18 18 17 17 18 17 17
11 12 12 12 12 12 12 12 13 13 13 13 12 12 10 11 13 13 13 13 13 14 15 15 16 16 17 17 17 17 17 17 18 17 17 17 18 18 19 19 18 18 18 18
12 12 12 13 13 13 13 13 13 14 14 13 12 12 11 12 13 14 14 14 14 14 15 16 16 17 17 17 17 17 18 18 18 17 18 18 19 19 19 19 19 19 19 19
13 13 13 13 14 14 14 14 14 14 14 14 14 14 13 13 14 15 15 14 15 15 16 17 17 17 18 17 18 18 18 18 18 19 19 19 20 20 20 20 20 20 20 19
14 14 14 14 15 15 16 15 15 16 16 16 15 15 15 14 14 15 16 16 16 16 17 17 18 18 18 18 18 19 19 19 19 19 20 20 20 20 20 21 22 21 22 21
14 15 15 15 16 16 16 16 17 17 18 19 18 16 17 17 17 17 17 17 17 18 18 19 19 19 19 19 19 19 20 20 20 20 20 20 21 21 21 21 22 22 23 23
15 16 16 17 17 18 17 17 18 19 19 20 19 18 18 19 19 19 19 19 19 19 19 20 20 21 21 20 20 20 20 20 20 20 21 21 21 21 21 22 22 22 23 23
15 16 17 17 18 18 18 18 19 21 21 21 21 19 19 20 20 20 20 20 20 20 20 20 21 22 21 21 21 21 21 21 21 21 22 22 23 22 22 23 23 24 24 24
17 17 18 18 19 19 19 20 21 21 22 22 21 21 21 21 21 21 21 21 21 21 21 21 21 22 22 22 22 22 22 22 22 22 23 24 24 24 24 25 25 25 25 25
18 18 19 19 20 21 21 21 22 22 22 22 22 23 22 22 22 22 21 22 21 22 22 21 21 21 22 22 22 23 23 23 23 23 24 25 25 25 26 26 26 27 26 26
18 19 19 19 20 21 21 21 21 22 22 23 23 22 22 23 23 23 22 22 23 23 23 22 22 23 22 22 23 23 23 23 24 25 25 26 26 26 27 28 28 28 28 28
19 19 20 19 20 21 20 20 20 21 21 22 23 23 23 23 23 24 23 23 23 23 23 24 23 24 24 24 24 24 24 24 25 26 26 27 27 27 28 29 29 29 29 29
20 20 20 21 21 21 20 20 20 21 21 22 22 23 23 23 23 24 24 24 25 25 25 24 24 24 25 25 25 25 25 25 26 27 28 28 29 29 29 30 30 30 31 30
21 21 21 21 22 21 20 20 21 21 21 22 22 23 23 23 22 23 24 25 25 26 26 26 26 26 26 27 27 27 26 26 27 28 29 30 30 31 31 30 30 31 31 32
21 22 22 22 22 22 20 21 22 22 22 22 23 23 23 23 23 24 25 26 26 27 27 28 28 28 28 29 29 29 29 29 29 29 30 30 31 31 32 32 32 32 33 33
22 23 24 24 24 23 23 22 23 23 23 24 23 24 24 24 24 25 25 26 28 28 28 29 30 30 30 31 31 32 32 31 31 31 31 31 32 32 33 33 33 33 34 34
24 24 25 26 26 25 25 25 25 25 24 24 25 25 26 26 26 27 27 27 27 28 29 29 30 32 32 33 33 32 32 33 33 33 33 33 33 33 33 33 34 34 35 34
25 25 26 26 26 26 27 27 27 27 27 27 27 27 27 28 29 29 30 30 30 30 31 31 32 32 33 33 34 34 33 34 34 33 33 33 34 34 34 34 35 35 35 34
26 26 27 27 27 27 27 28 28 28 29 29 29 29 30 30 30 30 31 31 32 32 32 33 33 32 33 34 35 35 35 36 35 35 34 34 34 35 35 35 35 35 34 34
27 27 28 28 27 28 28 28 29 29 29 29 30 30 31 31 31 32 32 32 32 33 33 34 34 34 34 34 36 37 36 36 36 36 36 36 35 34 34 35 35 35 35 34
28 28 29 28 28 29 29 29 29 30 30 29 30 30 30 30 30 31 31 32 32 33 34 35 35 35 36 36 36 36 37 36 36 36 36 36 35 35 35 35 34 34 34 34
Wind_Direction
254 254 255 257 260 263 264 263 264 263 260 256 256 256 256 257 259 257 254 254 252 255 258 260 261 260 261 265 268 272 272 274 275 274 275 276 276 276 277 277 278 279 282 284
253 253 256 261 264 267 268 266 267 264 264 263 258 257 259 257 257 256 254 253 254 258 260 259 260 262 263 265 268 269 269 269 272 274 276 277 277 278 278 278 278 279 282 282
255 256 260 263 266 270 270 270 270 268 265 265 264 259 258 258 257 256 256 255 258 259 261 262 260 262 265 267 268 269 270 267 269 273 276 277 277 277 277 277 278 280 282 283
252 257 259 262 266 270 271 273 272 272 267 265 267 265 260 260 262 261 259 257 258 258 258 259 262 264 266 270 268 266 269 269 269 272 274 274 274 275 276 276 277 280 282 283
254 256 258 260 264 268 272 273 273 273 272 271 269 269 262 259 262 260 258 258 259 262 264 262 263 267 269 271 272 268 269 271 270 270 272 273 275 276 276 277 277 279 281 282
260 263 262 264 267 269 270 272 271 271 272 273 273 273 265 264 265 263 261 263 264 266 267 266 265 267 272 273 273 273 272 272 273 273 272 273 274 275 275 275 275 277 278 279
258 261 263 264 265 266 269 271 269 270 271 271 273 272 271 268 268 268 270 270 268 267 267 267 269 270 275 277 275 273 273 273 272 272 273 275 276 275 274 274 275 276 277 278
256 257 261 264 266 266 269 273 273 272 273 273 273 274 273 269 266 268 270 270 268 269 270 271 271 275 280 280 277 273 273 273 271 271 274 275 275 275 274 275 276 276 276 276
260 261 264 268 270 271 270 272 272 272 274 274 275 277 273 274 271 269 269 270 269 272 273 273 273 276 280 281 279 276 273 272 270 270 273 274 274 273 274 274 275 275 276 277
264 265 268 272 275 273 272 272 271 273 275 277 278 278 278 276 274 271 268 269 271 272 274 274 274 277 278 279 279 276 273 273 271 271 272 273 273 273 274 274 273 275 275 276
266 267 268 271 273 273 272 270 271 273 275 281 281 278 280 280 278 276 270 267 271 271 272 274 274 277 279 279 280 278 275 276 274 275 274 276 274 271 272 274 275 275 275 277
270 268 268 272 275 276 273 271 272 273 276 277 280 279 280 281 280 277 272 266 268 269 271 273 275 277 278 279 280 278 276 276 276 275 276 277 276 273 272 273 275 275 275 276
275 274 273 272 274 275 275 275 276 276 276 277 278 281 282 280 279 277 273 268 268 268 270 272 274 276 276 278 280 278 275 275 277 277 277 278 278 277 276 275 275 274 275 275
276 276 276 276 275 275 275 277 278 279 278 278 279 280 280 279 279 277 274 270 269 270 271 273 274 276 276 276 277 277 277 276 277 278 278 278 279 279 279 278 276 275 274 275
277 277 278 278 277 275 275 277 279 281 281 281 281 280 279 277 275 272 271 270 268 269 272 273 273 275 274 275 276 278 278 277 278 278 279 280 280 279 279 278 278 277 275 274
279 276 277 279 279 277 276 278 280 281 281 282 280 279 277 275 273 272 272 270 268 269 270 271 274 275 275 276 277 279 280 279 278 279 280 281 280 280 279 278 278 277 277 275
282 280 278 279 280 278 275 280 281 282 282 282 280 277 275 274 272 270 271 273 271 271 270 271 272 274 276 277 279 280 282 282 281 280 279 280 280 280 281 280 279 278 279 278
282 283 280 280 279 277 280 279 280 279 281 281 281 280 278 276 273 271 270 271 271 273 272 271 274 275 276 278 278 280 282 282 283 283 283 282 281 281 281 281 280 279 278 279
282 282 283 282 281 280 280 280 279 276 277 280 280 281 279 278 276 276 276 273 273 273 272 272 273 274 276 277 277 279 280 281 283 284 283 283 282 282 280 279 278 278 278 277
279 280 281 282 283 282 282 281 279 279 279 281 279 279 279 280 278 277 277 275 274 275 273 274 274 275 277 279 279 279 280 281 283 283 282 282 281 281 281 279 277 276 277 277
278 278 279 281 282 285 285 282 282 282 283 281 280 279 279 281 280 279 278 277 277 276 273 274 276 276 277 279 280 280 281 283 284 283 283 283 282 282 281 279 278 277 277 276
278 279 280 281 281 284 287 285 284 284 283 282 281 280 279 279 281 281 280 279 279 277 275 275 277 277 278 278 279 280 281 282 283 283 284 284 283 283 282 280 279 279 278 276
278 279 281 282 283 284 284 285 284 283 283 282 280 280 280 281 282 282 282 280 279 279 277 277 278 279 279 280 281 282 283 283 283 283 284 285 284 283 282 281 280 279 278 276
278 279 280 281 282 282 283 284 284 284 283 282 280 281 282 283 282 282 283 281 279 280 280 279 279 280 280 279 281 282 284 285 284 283 283 284 284 283 282 282 281 280 278 277
278 278 279 280 281 282 282 283 283 283 284 283 280 280 282 284 283 283 283 282 281 281 282 282 281 282 283 282 282 283 284 284 283 283 283 283 283 283 282 283 282 281 279 277
278 278 279 280 281 282 282 282 283 283 284 284 283 283 283 283 284 285 285 284 284 284 285 285 284 285 287 286 284 284 284 283 284 283 283 283 283 283 283 283 282 280 277 275
Height
5825 5826 5826 5827 5829 5829 5830 5830 5830 5830 5830 5831 5831 5832 5832 5832 5833 5833 5834 5834 5834 5835 5835 5835 5835 5835 5835 5835 5834 5834 5834 5834 5833 5833 5833 5832 5832 5831 5831 5831 5830 5830 5829 5829
5823 5823 5825 5826 5826 5827 5827 5827 5827 5828 5828 5828 5829 5830 5830 5830 5830 5830 5831 5831 5832 5832 5832 5832 5832 5832 5832 5832 5832 5831 5831 5831 5830 5830 5829 5829 5829 5828 5828 5827 5827 5826 5826 5825
5820 5822 5822 5823 5824 5824 5824 5825 5825 5825 5826 5826 5826 5828 5828 5827 5827 5828 5828 5829 5829 5829 5830 5830 5830 5829 5829 5829 5829 5828 5828 5827 5827 5826 5826 5825 5825 5825 5824 5824 5823 5823 5822 5822
5818 5819 5820 5821 5821 5822 5822 5822 5822 5822 5823 5823 5824 5824 5825 5824 5824 5825 5825 5826 5826 5826 5826 5826 5826 5826 5826 5826 5825 5825 5824 5824 5823 5823 5822 5822 5821 5821 5820 5820 5819 5819 5818 5817
5816 5817 5818 5818 5819 5819 5820 5820 5820 5820 5819 5820 5820 5821 5823 5822 5822 5822 5823 5823 5823 5823 5823 5823 5823 5823 5823 5822 5822 5821 5820 5820 5819 5819 5818 5818 5817 5817 5816 5816 5816 5815 5814 5813
5813 5814 5815 5816 5816 5817 5817 5817 5817 5817 5817 5817 5817 5817 5819 5819 5819 5819 5820 5820 5820 5820 5820 5820 5820 5819 5819 5818 5817 5817 5816 5816 5815 5814 5813 5813 5813 5812 5812 5811 5811 5811 5810 5809
5810 5811 5812 5813 5814 5814 5814 5814 5814 5813 5813 5814 5814 5814 5816 5815 5815 5816 5816 5817 5817 5816 5816 5816 5816 5815 5815 5814 5813 5812 5812 5811 5810 5810 5809 5808 5808 5808 5807 5807 5806 5806 5806 5805
5808 5809 5809 5810 5810 5810 5810 5810 5811 5811 5810 5811 5811 5811 5813 5812 5812 5812 5812 5812 5813 5812 5812 5812 5812 5811 5810 5809 5808 5807 5807 5806 5806 5805 5805 5804 5803 5803 5802 5802 5802 5801 5801 5800
5805 5806 5807 5807 5807 5807 5807 5807 5807 5807 5807 5807 5807 5808 5809 5808 5808 5808 5808 5808 5808 5808 5808 5808 5807 5807 5806 5805 5803 5803 5802 5801 5801 5800 5800 5799 5799 5798 5798 5797 5797 5796 5796 5795
5802 5803 5803 5804 5804 5804 5804 5803 5804 5803 5803 5803 5803 5803 5804 5804 5804 5804 5804 5804 5804 5804 5804 5803 5802 5802 5801 5800 5799 5798 5797 5797 5796 5795 5794 5794 5793 5793 5792 5792 5791 5790 5790 5790
5798 5800 5800 5800 5800 5799 5800 5800 5799 5799 5799 5798 5798 5801 5799 5799 5799 5799 5799 5799 5799 5799 5799 5798 5798 5797 5796 5795 5793 5792 5792 5791 5790 5790 5789 5788 5787 5787 5786 5786 5785 5785 5784 5784
5795 5795 5795 5796 5796 5795 5795 5795 5795 5795 5794 5793 5793 5797 5794 5793 5793 5793 5793 5793 5793 5793 5793 5793 5792 5791 5791 5789 5788 5787 5786 5785 5785 5784 5783 5782 5781 5781 5780 5780 5779 5779 5778 5777
5791 5791 5791 5791 5793 5791 5790 5790 5790 5789 5789 5788 5788 5792 5789 5788 5787 5787 5787 5787 5787 5788 5787 5787 5787 5786 5785 5784 5783 5781 5780 5780 5779 5778 5777 5776 5775 5774 5773 5773 5772 5772 5771 5771
5786 5786 5787 5787 5786 5785 5785 5785 5785 5784 5783 5782 5783 5783 5783 5782 5781 5781 5781 5781 5781 5782 5782 5781 5781 5780 5779 5778 5777 5775 5774 5773 5772 5771 5770 5769 5768 5767 5766 5766 5765 5764 5764 5763
5781 5781 5781 5781 5780 5780 5780 5779 5779 5778 5777 5776 5776 5776 5776 5775 5775 5775 5775 5775 5775 5775 5775 5775 5774 5774 5773 5772 5770 5769 5768 5767 5766 5765 5764 5763 5761 5760 5759 5758 5757 5757 5756 5756
5776 5776 5775 5775 5774 5774 5774 5773 5773 5772 5771 5770 5769 5770 5769 5768 5768 5768 5767 5767 5768 5768 5768 5768 5768 5767 5766 5765 5764 5763 5761 5760 5759 5757 5756 5755 5754 5753 5751 5750 5750 5749 5748 5747
5770 5770 5770 5770 5769 5768 5768 5769 5767 5766 5765 5764 5763 5763 5762 5761 5761 5761 5761 5760 5761 5761 5761 5761 5760 5760 5759 5758 5756 5755 5753 5752 5751 5750 5749 5747 5746 5745 5744 5742 5741 5741 5740 5739
5766 5765 5764 5763 5763 5762 5765 5762 5761 5760 5759 5758 5756 5755 5755 5754 5754 5753 5753 5754 5754 5754 5753 5753 5753 5752 5751 5750 5749 5747 5746 5745 5743 5742 5740 5739 5738 5736 5735 5734 5733 5732 5731 5730
5760 5759 5758 5757 5756 5756 5758 5756 5755 5754 5753 5752 5751 5749 5748 5748 5747 5747 5746 5746 5746 5746 5745 5745 5745 5744 5744 5743 5741 5740 5738 5737 5735 5734 5732 5730 5729 5727 5726 5725 5724 5723 5722 5721
5755 5754 5753 5751 5750 5750 5753 5751 5749 5749 5747 5746 5745 5744 5743 5742 5741 5741 5739 5738 5738 5737 5737 5736 5736 5736 5735 5734 5733 5731 5730 5728 5727 5725 5723 5721 5719 5718 5717 5716 5714 5713 5712 5712
5749 5748 5747 5746 5744 5744 5745 5744 5743 5743 5742 5740 5738 5737 5736 5735 5734 5733 5732 5731 5730 5729 5729 5728 5727 5727 5726 5725 5724 5722 5721 5719 5718 5715 5713 5711 5710 5708 5707 5706 5704 5703 5702 5702
5742 5742 5741 5740 5739 5741 5738 5737 5736 5736 5734 5732 5731 5730 5729 5728 5727 5725 5724 5723 5722 5721 5720 5720 5719 5718 5716 5715 5714 5713 5711 5710 5708 5706 5703 5701 5699 5698 5697 5695 5694 5693 5692 5691
5735 5736 5734 5734 5735 5733 5731 5730 5728 5727 5726 5725 5724 5722 5721 5720 5719 5717 5716 5715 5714 5713 5711 5710 5709 5708 5706 5704 5703 5702 5701 5699 5697 5695 5693 5691 5689 5688 5686 5685 5683 5682 5681 5680
5728 5727 5727 5726 5726 5725 5724 5722 5721 5719 5718 5716 5715 5714 5713 5711 5710 5709 5707 5706 5705 5703 5702 5701 5699 5698 5696 5694 5693 5691 5690 5688 5686 5684 5683 5681 5679 5677 5675 5674 5672 5671 5670 5669
5720 5719 5718 5718 5718 5717 5716 5714 5713 5711 5710 5708 5707 5705 5704 5702 5701 5699 5698 5696 5695 5694 5692 5690 5689 5687 5685 5683 5682 5680 5678 5676 5675 5673 5671 5670 5668 5666 5665 5663 5661 5660 5659 5658
5712 5711 5711 5710 5709 5708 5708 5706 5704 5702 5701 5699 5698 5696 5695 5693 5691 5690 5688 5687 5685 5684 5682 5680 5678 5676 5674 5672 5670 5669 5666 5665 5663 5661 5660 5658 5656 5655 5653 5652 5650 5649 5648 5647